Theta_e
306 306 307 307 307 306 306 307 306 308 309 310 307 307 309 309 304 301 310 313 310 311 313 315 322 326 327 331 335 338 338 337 337 337 337 338 338 340 340 341 342 343 345 347 348 348 347 349 349 350 352 354 354 354 355 357 358 359 360 360 360 361 361 360 360 362 362 361 363 364 364 365 363 360 359 358 356 355 355 354 353 351 350 348 351 356 358
306 306 307 308 307 306 306 306 307 309 309 309 309 308 309 309 309 310 310 312 312 313 315 321 328 331 330 334 338 338 337 335 336 336 336 337 338 338 339 341 342 343 344 344 346 347 348 348 346 346 348 350 353 353 353 355 357 358 359 360 360 359 359 359 361 363 364 365 364 365 366 366 365 365 363 361 360 360 359 359 358 357 356 355 355 354 357
305 307 309 308 308 307 306 307 307 308 308 308 309 308 309 310 309 310 311 312 312 317 329 329 333 334 336 336 335 336 337 335 335 335 336 337 338 339 340 342 342 342 343 343 344 345 345 347 347 347 349 350 351 352 353 354 355 356 359 359 359 358 357 360 361 363 361 361 362 362 363 363 365 365 364 362 361 361 361 361 361 362 359 357 359 361 360
303 306 306 307 307 308 307 306 307 307 307 306 308 307 310 310 308 310 311 309 309 326 328 331 334 334 334 333 335 335 335 335 336 336 337 338 339 338 339 340 341 341 342 342 342 344 345 346 348 349 348 349 350 350 351 351 353 355 355 357 357 356 357 358 358 357 357 358 359 360 360 360 363 365 364 362 362 362 361 360 360 360 361 360 361 361 361
302 307 307 305 306 305 302 304 307 309 309 310 310 311 313 313 312 309 307 308 315 323 329 326 331 331 332 333 334 335 334 336 336 336 337 338 339 338 338 339 339 339 340 341 343 343 344 345 346 348 349 348 348 351 351 353 354 353 353 354 355 355 357 358 355 354 355 353 355 356 356 358 360 361 361 358 358 360 360 362 361 358 358 357 356 355 355
302 305 306 307 302 296 298 313 311 310 308 308 308 309 311 314 315 312 313 317 325 327 325 321 326 329 332 335 337 338 336 335 336 337 338 337 338 339 339 340 340 341 342 342 343 344 344 344 346 348 349 348 348 351 351 350 350 351 352 352 352 352 352 353 354 355 354 354 354 355 356 357 357 358 356 356 357 357 359 359 358 356 355 354 354 354 353
301 305 306 300 295 297 316 315 318 316 313 313 310 310 312 314 316 316 314 317 320 324 326 328 331 334 335 336 337 337 336 336 336 336 337 337 338 339 340 340 340 341 341 342 343 344 346 346 348 348 348 348 347 349 346 344 344 345 347 346 347 349 349 351 354 354 354 354 353 353 354 355 356 355 353 354 354 354 353 352 351 350 347 347 347 348 349
306 303 301 293 296 307 313 314 318 321 315 315 314 311 312 314 314 317 316 317 322 329 329 331 335 336 335 336 338 337 338 337 337 335 335 338 338 339 340 340 341 341 342 343 343 344 346 347 348 347 347 348 347 344 345 344 344 344 344 344 344 345 346 346 347 348 349 350 351 351 351 352 352 352 352 350 348 347 345 343 343 341 339 340 341 344 346
299 301 300 299 308 306 307 308 312 312 309 311 309 303 308 316 316 316 316 318 328 329 330 333 334 335 333 332 333 338 337 338 338 337 337 337 337 338 339 339 340 342 343 343 345 345 346 346 347 348 349 348 347 348 348 347 345 344 342 343 344 344 344 345 345 346 348 347 347 347 348 348 349 350 350 345 344 343 339 338 337 335 335 336 340 341 342
305 299 297 298 298 296 302 309 314 315 314 315 316 312 307 314 317 318 318 319 329 330 331 332 334 334 329 323 326 336 337 338 338 339 339 338 339 338 339 341 341 343 343 344 346 345 346 346 346 347 348 348 347 349 349 347 347 346 345 341 342 344 345 346 346 347 345 346 346 346 347 346 346 344 343 340 338 337 334 332 331 333 335 337 338 340 339
302 301 297 296 295 300 308 312 313 319 320 317 318 310 303 315 317 319 320 322 329 329 330 332 333 328 318 317 326 336 338 339 340 338 337 338 339 340 340 340 341 342 343 345 345 346 347 343 345 346 347 348 347 346 346 344 343 345 344 342 342 342 345 346 345 346 347 346 345 344 344 343 342 340 338 336 334 331 329 329 330 334 336 334 333 335 336
303 301 298 296 301 301 310 314 315 317 321 318 313 299 301 315 318 320 322 324 328 329 332 333 331 324 314 317 330 336 337 338 340 338 337 338 339 340 342 342 343 344 345 346 345 344 343 342 344 345 346 346 346 345 345 346 344 342 342 344 344 345 345 345 345 346 346 344 344 344 342 340 337 334 332 330 329 329 329 330 330 332 333 332 329 331 334
301 301 300 301 303 310 314 313 317 319 320 316 303 296 307 317 320 323 323 326 330 333 333 333 327 331 332 336 339 341 340 340 341 340 341 341 341 342 342 342 343 343 343 342 341 341 342 344 345 345 344 344 343 344 345 345 343 342 343 344 343 342 342 340 340 339 339 339 338 338 339 337 336 333 331 330 331 332 332 332 331 329 329 329 329 332 335
300 301 298 299 303 312 315 317 318 321 316 302 301 320 325 320 322 326 326 328 332 334 335 332 330 334 337 339 339 341 340 339 340 340 341 341 340 342 343 343 343 342 341 341 341 340 341 342 343 344 345 343 342 342 343 341 340 341 341 340 340 339 337 336 335 335 336 339 339 335 333 332 330 329 331 333 334 333 332 330 328 326 327 327 327 329 333
303 303 300 297 292 314 316 319 319 320 308 308 319 321 325 323 325 325 329 332 335 335 333 335 338 336 335 335 337 339 338 339 338 340 340 339 338 339 340 340 340 340 339 338 335 337 340 343 345 346 345 343 342 342 340 341 341 341 340 338 337 336 334 333 333 333 334 335 334 333 331 332 331 331 333 332 333 332 331 330 328 327 328 328 329 330 331
299 300 297 297 306 319 321 316 309 318 316 325 327 325 322 325 325 326 330 333 336 334 334 334 336 334 334 336 337 336 337 338 338 342 341 339 339 338 339 339 338 338 338 337 337 336 338 341 345 345 343 341 341 339 338 341 341 341 339 337 337 335 334 333 332 333 335 334 333 333 332 332 332 332 333 334 333 332 332 331 329 330 332 331 329 328 329
305 303 305 316 320 320 321 319 328 325 326 328 328 330 326 323 327 333 330 334 335 336 336 336 335 334 334 335 335 334 335 336 338 339 339 338 337 337 338 338 338 339 338 337 338 338 338 339 341 342 343 340 339 337 338 340 339 338 337 336 335 334 333 332 332 333 334 335 335 335 334 333 332 332 332 333 332 333 332 331 331 330 331 331 330 329 328
318 318 319 319 323 320 320 324 328 328 326 327 327 328 325 330 332 333 331 336 336 337 338 335 334 335 334 335 335 335 335 335 337 340 338 336 336 336 336 337 339 339 338 338 340 340 340 341 341 342 342 342 340 339 340 339 339 338 337 335 334 333 334 334 333 333 332 333 334 335 335 334 333 332 331 330 329 330 329 328 330 330 330 330 330 329 328
306 302 318 314 317 322 322 323 327 331 330 329 329 329 331 331 334 332 336 337 338 338 338 337 336 336 337 336 335 337 337 338 339 336 335 335 336 335 334 335 339 339 338 337 337 338 339 339 339 339 340 339 340 341 341 340 340 339 337 335 334 334 333 332 334 333 331 329 328 328 328 327 327 328 329 328 327 326 325 324 325 326 329 331 330 328 327
307 309 320 319 323 328 327 324 326 325 330 334 335 337 337 338 338 337 338 338 337 338 335 336 335 334 335 334 335 335 338 339 338 336 336 337 335 335 336 338 339 339 337 336 336 337 337 337 337 337 337 337 339 339 339 340 339 338 337 336 335 334 331 329 328 327 327 328 327 326 326 325 323 324 325 326 326 327 327 327 325 325 328 330 330 329 327
312 317 320 321 324 325 325 326 328 328 330 333 333 336 338 338 337 337 338 337 337 336 335 336 335 333 334 335 336 336 337 337 335 336 336 337 336 337 336 337 339 339 338 337 337 336 336 338 337 337 336 336 337 339 340 341 340 338 336 336 335 331 329 327 324 324 322 323 323 323 323 322 318 314 314 321 330 328 321 318 321 329 330 330 331 331 329
308 308 313 319 310 311 319 323 327 331 332 333 334 335 335 336 337 337 335 336 336 335 336 336 334 332 333 335 336 335 336 336 337 337 336 336 335 336 337 337 338 338 338 338 336 337 338 339 338 338 337 338 338 337 339 340 339 337 335 333 331 330 330 328 327 325 322 320 320 319 319 320 320 316 309 300 305 320 320 311 304 299 309 326 329 333 332
306 319 321 324 326 325 319 322 325 332 332 333 332 334 334 337 337 337 336 336 336 336 336 336 334 334 335 336 336 336 335 337 338 337 337 335 333 335 337 336 336 336 336 337 337 337 338 339 339 338 338 338 340 340 340 340 339 337 336 333 332 330 331 331 330 329 327 326 326 325 322 322 324 324 322 316 298 296 303 304 299 297 297 299 305 314 332
317 320 320 327 325 322 323 323 328 330 333 330 330 333 335 336 337 337 337 337 336 337 337 336 336 335 335 336 336 335 336 337 336 336 337 335 334 334 336 336 335 335 335 336 337 337 338 338 337 337 336 338 339 340 341 339 338 337 336 334 333 332 332 332 332 333 331 331 329 329 326 325 325 325 324 323 320 302 296 298 298 295 295 296 299 304 311
317 324 324 324 327 328 329 329 329 330 331 331 329 332 334 336 337 338 337 337 338 338 336 335 336 337 336 336 337 335 335 336 336 337 336 335 333 332 332 333 334 334 335 335 337 337 337 335 333 332 334 338 339 338 340 340 339 338 337 336 335 334 335 334 332 332 331 332 331 328 326 326 324 324 324 323 322 321 315 298 296 296 295 295 296 298 300
323 324 326 328 327 327 332 331 330 330 332 335 334 333 337 337 338 338 338 338 338 338 338 337 335 336 337 336 337 337 336 337 336 337 335 335 334 332 331 332 333 333 333 333 333 332 331 331 332 333 335 336 339 339 338 339 338 338 335 333 334 335 335 335 333 331 330 332 332 331 328 325 324 324 324 325 324 324 323 323 323 310 301 297 297 298 296
327 329 327 326 323 326 328 324 323 329 330 333 334 337 337 340 339 340 340 340 339 339 339 338 337 337 338 337 338 337 337 337 337 337 336 334 334 333 333 333 333 334 332 330 331 330 329 331 331 332 330 329 334 336 334 337 339 336 335 334 334 334 334 334 333 330 327 328 328 330 329 326 325 325 326 326 326 325 324 324 323 324 324 321 306 299 310
327 328 330 330 323 326 329 332 333 331 331 331 336 335 337 337 338 338 337 337 338 339 339 338 335 336 336 337 337 335 336 336 335 336 335 333 334 334 334 334 335 334 331 331 332 333 332 331 329 329 330 332 334 335 332 334 334 332 330 330 330 333 334 332 329 327 326 326 325 325 324 324 325 325 326 325 325 325 324 325 324 323 324 324 319 305 298
326 327 330 330 331 332 332 333 333 333 334 334 335 336 334 333 332 333 334 336 338 339 337 337 337 337 337 337 336 335 334 333 334 335 336 336 335 333 334 335 333 331 332 331 331 332 330 329 329 329 332 335 333 333 330 329 328 326 326 324 326 327 327 328 327 326 325 326 326 326 325 322 324 324 324 325 325 325 326 324 324 325 324 324 322 319 315
324 329 328 329 331 330 329 327 329 331 332 334 333 334 333 331 330 331 333 334 336 334 336 337 336 336 336 336 336 336 333 332 334 336 336 336 336 335 335 335 332 333 332 331 331 332 331 330 329 329 330 332 333 333 330 329 327 328 327 326 325 324 326 328 328 327 327 327 326 325 324 323 324 323 322 323 325 324 323 323 324 323 323 324 323 323 323
323 329 328 329 329 329 329 330 331 330 333 334 334 333 331 332 329 331 334 336 336 335 336 335 335 335 335 335 336 337 335 334 336 336 335 337 337 337 336 335 331 329 330 331 334 333 332 331 330 329 330 329 330 333 331 328 327 328 328 328 327 328 326 327 327 326 326 325 324 323 324 324 324 323 322 322 322 323 324 324 324 323 323 324 324 324 323
319 323 327 326 326 326 328 331 331 329 330 331 330 329 332 330 330 333 335 336 336 336 337 336 335 335 335 336 336 337 336 335 336 336 335 336 338 338 338 336 335 334 333 335 334 333 334 333 332 332 331 330 330 332 331 330 330 328 327 328 329 328 328 328 327 326 327 325 324 326 327 328 326 326 323 323 324 323 323 324 324 324 324 323 323 326 325
319 316 318 326 323 324 326 326 327 327 328 329 331 332 335 335 333 333 334 337 336 338 337 336 336 336 336 336 337 337 336 336 337 336 335 336 337 338 338 336 336 336 336 337 337 335 334 333 333 334 333 331 330 332 330 331 330 329 328 330 330 328 329 327 326 327 329 327 326 327 327 327 327 328 326 327 327 324 324 324 323 323 324 324 324 327 326
320 319 323 326 326 325 323 326 328 330 330 329 330 334 335 336 337 335 337 339 339 338 338 337 337 336 336 335 336 336 335 334 333 333 335 337 337 338 337 335 336 336 337 338 337 335 334 335 336 334 333 332 331 330 331 330 330 329 330 329 329 328 327 328 330 327 327 327 328 326 327 326 326 325 325 326 326 326 326 325 324 323 323 323 324 329 314
327 326 326 327 328 328 328 327 329 327 328 329 326 327 331 336 337 338 338 340 338 339 341 340 338 336 335 334 334 333 332 332 333 335 336 337 337 338 338 336 336 336 337 337 337 335 336 336 337 335 333 332 332 330 331 329 328 328 330 329 331 329 327 328 327 326 325 326 327 327 327 326 325 326 325 324 325 327 326 326 325 324 324 324 327 327 323
328 329 329 329 329 328 330 330 329 331 329 329 327 329 330 334 335 337 338 340 338 341 342 341 340 337 335 334 332 331 331 332 333 335 337 337 338 338 337 336 336 335 335 336 337 337 337 337 335 334 332 330 330 330 329 328 328 328 331 328 328 327 327 327 328 326 328 326 327 326 326 326 325 325 325 327 325 326 326 326 326 325 325 325 325 322 322
330 328 328 329 329 329 331 330 330 331 333 333 333 332 330 332 333 336 338 341 340 341 344 342 340 336 335 335 335 334 334 334 333 334 335 338 338 338 337 336 336 335 335 332 335 336 336 336 334 332 331 330 330 331 331 330 328 328 328 327 326 325 325 326 326 327 327 327 325 326 327 325 325 325 325 324 324 324 323 324 326 326 324 323 323 322 319
330 331 331 331 331 329 330 330 330 330 329 329 330 330 329 330 334 335 337 339 341 342 344 342 341 340 339 338 337 334 334 335 336 336 336 337 338 336 336 334 333 334 331 332 337 336 335 334 329 330 331 330 330 329 329 329 327 326 325 324 324 323 322 323 324 325 325 326 325 326 326 325 324 324 324 323 323 323 322 323 323 323 323 324 325 324 322
329 331 332 332 332 330 329 329 329 330 329 330 331 332 333 333 334 336 337 338 340 341 342 342 342 341 339 338 336 335 335 337 333 327 325 328 333 334 333 334 335 335 335 338 339 336 334 333 331 331 331 331 331 328 330 331 330 324 323 324 324 323 322 322 323 324 324 326 325 326 326 325 324 322 321 321 321 321 321 323 322 322 323 324 323 323 322
328 329 329 329 329 331 332 332 331 331 331 331 331 334 336 334 334 335 336 337 339 339 341 341 340 337 338 339 338 336 336 333 328 324 325 328 330 331 332 335 338 339 338 337 338 336 332 328 330 331 331 332 330 328 330 329 327 322 323 322 322 322 322 322 322 321 322 322 322 323 323 323 324 322 320 320 321 320 322 323 322 322 322 322 322 321 321
327 327 328 329 329 329 329 330 330 331 333 333 332 332 334 335 335 335 335 336 338 339 339 338 338 337 337 338 338 337 337 330 327 324 325 328 328 329 327 328 335 337 337 336 337 336 329 329 330 330 331 331 330 328 328 328 324 321 321 322 322 322 322 321 321 321 321 320 320 321 322 323 322 322 321 320 320 320 321 321 321 322 321 320 320 320 320
326 328 328 327 328 328 329 330 331 331 332 333 333 336 336 336 336 336 336 336 337 337 337 337 336 337 338 338 338 337 335 328 326 324 323 324 325 326 325 327 334 335 334 333 335 332 329 329 329 329 331 331 328 326 327 325 322 321 321 321 322 321 322 322 322 321 321 321 322 321 323 323 323 322 321 322 320 319 320 321 321 320 320 319 319 319 318
325 325 325 326 327 328 328 328 328 329 331 332 333 333 334 334 335 335 334 335 336 336 336 336 335 333 333 336 336 334 334 331 327 327 327 327 329 331 330 332 334 336 328 332 332 333 330 330 330 330 329 328 327 324 325 323 321 321 321 321 321 321 321 322 321 321 322 321 321 321 323 323 322 321 320 320 321 320 320 320 320 319 319 319 319 318 317
323 324 324 325 325 326 328 328 328 327 326 328 333 333 333 333 332 331 332 333 334 334 335 335 336 335 334 334 334 333 332 332 330 327 326 327 330 333 334 335 336 335 324 330 330 330 330 329 330 328 325 323 323 322 324 323 321 320 320 320 321 321 320 321 321 321 321 320 320 321 321 319 319 319 321 319 320 320 320 319 320 319 318 318 318 317 316
322 324 324 324 325 326 326 326 327 327 328 330 330 332 332 332 333 332 331 332 331 333 333 334 335 335 335 334 334 334 334 334 334 331 329 327 327 329 334 333 336 333 328 327 330 328 329 329 328 325 323 322 321 321 325 322 320 319 319 319 320 319 319 320 320 322 321 321 320 320 319 319 319 319 320 319 320 320 319 318 319 319 318 317 316 315 315
322 322 324 323 325 325 326 327 328 329 328 328 328 328 330 331 329 332 333 332 332 333 333 335 335 335 336 335 336 336 336 336 335 336 335 333 331 334 337 331 334 332 324 321 328 328 329 325 323 320 320 320 320 325 325 320 320 320 320 319 319 317 317 318 320 320 321 320 320 320 320 320 320 320 319 320 320 320 319 317 317 319 317 317 317 316 316
322 322 323 324 325 326 327 327 328 327 326 325 324 324 326 331 331 330 330 333 333 332 333 333 334 335 336 336 335 334 332 333 334 336 336 335 335 335 336 330 330 325 323 328 330 330 329 328 325 320 320 321 322 327 323 321 320 320 320 320 318 316 316 317 319 321 321 321 322 320 320 319 320 320 319 320 319 318 319 318 317 317 316 316 315 314 314
323 323 323 325 325 326 326 327 326 325 325 325 325 325 327 328 329 330 331 331 332 333 332 332 331 332 335 336 337 336 335 333 329 332 335 336 336 335 335 337 333 327 324 325 326 329 325 323 319 318 319 320 321 325 326 323 320 320 320 320 320 318 318 317 318 319 320 321 320 321 320 319 320 320 319 319 318 318 318 318 317 317 317 316 315 315 316
325 325 325 325 325 326 326 325 324 323 323 325 326 327 328 328 329 329 330 331 331 330 329 330 331 332 333 332 333 332 334 335 333 331 337 336 335 334 335 334 328 323 325 329 329 330 322 317 317 317 319 319 321 320 320 320 320 320 319 319 318 318 319 319 320 320 320 320 321 320 320 319 319 320 319 319 318 318 318 318 317 317 317 316 315 316 316
325 324 324 324 323 323 324 323 322 324 327 327 326 327 329 327 325 324 326 327 327 326 328 327 327 329 331 331 332 331 331 333 335 335 335 336 336 336 333 333 331 326 326 329 330 329 322 316 316 317 320 323 323 322 320 320 321 321 320 319 317 317 317 317 316 317 320 320 320 318 319 319 320 319 318 317 317 318 318 317 317 316 314 314 315 316 316
323 323 323 323 324 325 326 325 324 324 324 324 325 326 325 324 324 324 325 325 325 324 324 326 327 327 327 328 330 331 332 333 333 334 333 334 336 334 333 333 331 326 327 327 329 329 327 325 325 321 322 323 323 322 321 319 319 319 317 317 317 316 316 317 317 319 321 320 320 319 320 319 319 320 319 317 316 317 318 318 317 318 317 317 316 316 316
326 325 324 324 323 323 324 325 325 325 325 325 324 323 323 323 323 324 324 325 325 324 323 324 323 326 329 329 327 328 330 330 330 332 332 331 334 334 332 330 329 327 327 328 329 330 329 326 323 320 321 324 324 323 319 318 318 317 317 318 318 317 317 316 316 318 320 320 320 320 318 319 320 320 318 317 319 319 318 318 318 319 318 316 317 317 316
Wind_Speed
3 1 1 2 3 3 3 4 4 4 5 6 9 9 9 6 8 10 4 3 7 8 7 5 3 3 4 3 3 2 1 2 2 3 3 3 3 2 2 2 2 3 3 3 5 7 7 6 6 5 4 4 5 6 7 9 10 10 10 10 11 11 10 10 10 10 10 9 8 7 7 6 7 8 8 8 7 7 7 7 6 7 8 8 7 5 4
5 4 4 4 5 4 5 5 5 5 6 7 7 9 8 8 10 9 11 9 10 9 9 3 2 1 3 0 2 2 3 3 3 3 3 3 3 3 1 1 2 1 0 1 1 3 5 6 6 4 3 3 4 6 8 9 9 10 10 11 11 11 10 10 10 10 9 9 9 8 7 7 7 7 7 7 6 6 6 6 7 6 6 5 6 7 5
4 5 4 5 6 5 7 6 5 5 6 7 7 8 8 7 9 11 10 10 11 5 1 2 1 1 2 3 4 4 3 2 2 4 4 3 2 1 1 2 3 3 4 2 2 1 2 3 4 6 5 4 5 5 6 8 9 9 10 11 10 10 10 10 9 8 6 6 7 8 9 8 7 7 7 7 7 7 7 7 7 6 6 6 5 3 1
7 6 7 6 5 7 7 7 7 8 8 8 6 7 5 7 8 7 5 8 8 4 3 4 3 3 4 4 5 4 3 2 3 4 3 3 3 2 1 2 3 4 3 2 2 3 3 3 3 3 4 5 6 7 7 8 8 8 10 11 10 10 10 10 9 9 7 6 7 8 8 8 8 7 7 8 8 7 7 7 6 5 6 5 3 2 1
7 8 7 7 7 6 8 9 10 10 9 8 6 5 5 6 7 7 6 5 2 3 3 3 3 4 3 4 3 3 3 1 3 3 2 2 3 2 3 3 2 1 1 2 2 0 2 3 3 3 3 4 4 5 6 7 6 7 7 9 9 10 10 8 10 9 9 9 9 9 9 9 8 8 8 7 7 7 6 5 4 4 3 3 3 4 3
4 8 8 6 6 9 5 4 2 4 6 6 9 7 6 6 7 6 5 5 4 3 2 3 2 3 3 2 2 1 1 2 3 3 1 0 2 3 3 4 3 2 2 2 2 1 2 2 3 2 2 3 3 2 3 2 3 6 7 7 5 8 9 10 9 10 11 11 11 11 10 9 8 8 8 6 5 4 3 5 4 3 3 3 3 2 2
7 6 5 7 11 7 4 3 2 1 3 5 8 8 6 6 7 9 9 7 5 1 1 1 1 1 2 2 2 4 3 2 2 0 0 2 2 2 3 3 4 3 2 3 3 4 3 2 2 3 3 4 4 3 5 6 4 2 2 5 3 3 4 3 4 6 7 8 9 9 8 8 7 8 8 6 5 4 6 5 5 5 4 4 4 4 4
2 5 7 10 8 3 4 2 2 2 2 4 7 10 10 8 9 8 9 8 3 3 3 2 2 2 1 2 3 3 4 3 3 2 4 4 3 3 3 3 3 3 2 2 3 4 3 3 3 3 3 4 6 6 5 6 6 4 3 4 5 5 5 4 3 4 4 6 6 6 6 7 8 8 9 7 6 7 7 7 8 8 6 5 6 6 6
10 8 9 10 2 5 7 5 5 6 6 5 7 10 4 3 5 6 7 5 4 4 4 3 3 2 2 4 5 6 5 6 4 2 3 2 3 4 3 2 3 2 2 3 4 4 5 4 3 3 3 3 5 7 7 6 7 7 6 6 5 5 4 4 4 5 6 5 4 4 6 6 7 6 6 9 6 7 8 7 7 6 6 6 5 7 7
8 9 8 8 8 9 6 6 2 4 4 5 3 7 10 5 5 4 6 5 6 6 6 5 5 3 4 5 5 9 8 7 5 4 3 3 3 2 3 2 3 4 3 3 5 5 6 5 3 3 2 4 4 5 4 4 4 5 5 3 3 3 4 5 5 4 5 4 5 5 5 7 6 7 8 7 7 6 8 8 8 6 6 7 5 6 8
7 9 9 8 9 7 2 1 3 4 2 3 2 5 9 3 1 3 4 5 6 7 7 7 7 5 4 2 5 8 9 8 6 5 4 4 3 4 3 3 4 3 3 2 2 3 2 5 6 4 3 4 4 5 5 6 4 3 5 6 6 3 3 4 5 5 6 5 5 4 5 5 5 5 5 4 5 7 8 8 7 5 6 8 9 8 8
8 9 10 10 6 7 3 4 4 5 4 4 4 8 3 6 3 4 4 6 7 7 7 8 7 6 4 3 6 7 9 8 7 6 5 4 4 4 4 5 5 5 3 3 2 4 4 5 5 4 3 3 5 6 6 7 6 5 5 6 8 6 6 7 5 5 6 7 7 6 7 6 6 7 8 7 7 9 9 8 7 6 7 8 10 8 7
9 11 10 8 7 3 6 5 7 6 5 4 6 7 4 5 5 5 4 6 7 8 9 8 5 4 3 4 4 4 6 7 6 4 5 4 4 5 6 6 4 6 5 4 4 4 3 4 4 4 4 4 4 5 5 6 8 8 7 7 8 8 8 7 7 7 7 7 8 9 9 9 8 8 6 8 9 11 11 10 9 9 9 8 8 7 7
10 8 10 9 7 3 7 6 6 9 6 6 7 2 3 4 5 5 5 6 8 9 9 7 4 4 5 4 4 5 6 6 6 6 6 6 7 7 7 6 5 6 7 7 8 8 6 2 3 4 5 6 6 7 8 10 10 9 9 9 8 9 8 6 7 8 9 8 8 8 9 9 9 9 9 9 5 7 8 10 11 11 10 8 8 8 7
9 6 9 7 7 5 8 12 7 6 8 2 4 5 3 3 2 5 5 5 7 8 7 6 3 5 4 4 5 6 6 7 7 7 6 6 6 6 5 5 5 6 6 6 6 6 2 1 4 4 7 9 9 8 10 10 10 10 10 10 10 11 9 9 8 8 7 9 9 8 9 10 11 10 10 8 8 8 9 9 9 10 9 9 7 9 9
9 9 10 6 3 4 12 12 6 10 5 3 2 2 5 2 2 3 3 4 6 7 6 7 6 5 6 5 6 7 7 7 8 7 7 6 5 5 6 6 6 5 4 4 4 6 6 1 1 4 8 9 10 11 11 9 10 10 10 10 10 10 10 10 11 9 9 10 10 10 11 11 11 10 8 9 9 9 9 9 9 9 8 9 10 10 10
10 6 4 4 6 7 10 7 5 5 8 3 3 1 2 3 3 2 3 5 7 7 6 6 7 7 6 6 7 7 8 8 9 8 7 6 6 6 7 7 5 4 5 6 8 7 6 6 7 7 8 10 11 11 9 9 10 10 10 9 9 10 10 10 10 10 10 10 10 10 9 9 10 10 10 10 9 8 8 8 8 9 8 8 9 9 10
4 1 3 2 0 2 7 6 4 4 6 3 2 1 2 2 2 3 2 6 7 8 7 7 7 6 7 7 7 7 8 8 8 8 8 7 7 8 7 6 5 7 8 6 7 10 9 9 9 8 8 9 11 10 9 8 8 8 8 7 7 9 10 12 11 10 11 12 12 10 10 8 8 8 8 8 8 7 8 8 8 8 9 9 9 10 10
5 5 6 4 3 3 5 6 5 3 2 4 3 2 1 3 3 3 3 6 7 8 7 7 7 7 7 7 7 7 7 7 8 8 8 7 6 5 5 6 7 9 10 9 9 10 11 10 9 9 9 8 9 8 9 9 11 10 10 11 10 10 10 10 11 10 11 9 9 9 9 8 7 7 6 7 7 7 8 8 9 9 10 10 10 11 11
8 1 4 2 2 0 1 5 6 4 5 4 2 2 4 4 4 3 5 6 8 8 8 7 7 8 8 9 9 9 9 8 8 7 8 8 8 6 7 9 10 10 9 11 11 11 10 9 10 10 10 10 10 9 10 10 11 10 10 11 11 11 11 9 9 9 9 10 9 8 7 7 6 6 6 6 6 6 6 6 9 9 9 9 10 10 12
3 3 2 2 3 4 5 5 5 5 7 7 6 6 6 6 6 6 6 6 7 8 7 8 7 8 8 9 9 10 9 9 8 8 8 8 9 9 10 9 9 9 10 11 12 12 11 10 11 10 10 10 11 11 11 11 10 11 11 12 11 11 10 10 10 9 9 8 9 9 9 9 9 8 8 7 6 8 8 7 6 3 9 10 9 9 11
6 6 5 7 5 6 7 9 9 7 8 8 8 7 7 6 7 7 8 7 7 6 7 7 7 8 8 9 9 10 9 9 9 9 9 9 9 9 10 9 10 11 11 12 12 11 9 9 9 10 10 10 10 10 10 10 11 11 10 10 10 10 9 10 9 9 9 9 9 9 9 8 8 9 14 15 11 7 6 10 13 14 12 6 4 8 9
4 4 4 7 2 6 5 7 10 10 9 9 9 8 7 7 7 7 8 8 7 6 7 6 7 7 8 9 9 10 9 9 9 9 10 9 9 9 9 10 11 11 11 11 11 11 9 8 7 7 7 8 9 8 8 8 8 8 7 7 8 8 8 8 8 8 9 8 8 8 8 8 8 8 8 10 15 15 12 12 13 15 15 15 16 14 8
2 5 8 1 2 2 2 7 11 10 8 8 8 7 7 7 8 7 7 7 8 7 6 6 7 8 9 9 10 9 9 10 10 10 9 9 9 9 9 10 10 11 12 11 11 11 9 9 8 8 7 6 7 8 7 7 7 6 7 7 7 7 7 7 7 7 7 7 8 8 7 7 7 8 8 9 8 13 13 13 14 15 15 14 15 15 14
6 8 8 7 2 1 1 7 9 10 8 7 8 8 7 8 7 7 7 7 7 8 8 7 7 7 8 10 10 9 9 9 10 10 9 8 9 8 10 11 10 10 10 9 9 9 9 9 10 9 8 7 6 7 6 5 6 6 5 6 7 8 8 7 7 8 8 7 7 8 8 7 7 7 8 8 9 8 8 12 15 15 15 14 14 13 14
5 6 6 5 3 1 2 6 8 10 9 6 7 7 7 6 7 7 7 7 7 7 8 8 7 7 8 10 9 10 10 10 11 11 9 9 9 8 8 11 11 9 9 9 9 10 11 11 10 9 8 8 7 7 7 5 5 6 6 6 7 7 8 8 7 7 7 7 7 7 7 7 7 7 8 8 8 9 9 8 8 11 13 15 13 13 14
3 5 5 4 5 3 4 5 7 10 9 8 6 7 7 8 7 6 6 6 7 7 8 8 7 7 7 9 10 10 9 10 10 9 8 9 9 8 8 9 12 12 11 10 9 9 10 9 8 9 9 9 8 7 7 7 7 7 7 7 7 8 10 8 7 7 7 7 7 7 7 7 8 8 8 8 9 9 9 10 10 9 7 7 10 12 8
2 2 3 4 1 3 5 5 5 5 9 7 5 7 8 8 7 7 8 7 7 7 7 8 9 8 8 9 10 10 10 11 10 9 8 9 8 8 8 9 11 11 11 9 9 9 9 9 10 9 9 8 8 7 7 8 7 7 7 8 8 8 8 8 7 6 6 6 7 7 7 7 7 8 9 9 9 9 9 10 10 10 9 7 6 7 11
2 0 1 3 5 3 2 5 6 5 6 6 5 6 8 9 8 8 8 8 8 8 7 8 7 8 8 9 10 10 10 10 10 10 9 7 8 8 9 11 11 10 10 10 9 9 9 9 10 9 8 7 8 8 8 7 7 7 7 8 8 8 8 7 7 7 6 6 6 7 7 7 8 8 8 9 9 9 9 9 9 9 9 9 8 7 7
3 1 3 2 1 2 1 6 7 6 5 5 6 6 8 8 8 7 7 8 9 8 8 8 8 8 8 9 9 9 10 11 10 9 8 8 8 8 10 10 10 9 9 9 9 9 10 9 9 9 9 8 8 7 8 7 7 7 8 8 8 8 7 7 7 7 7 7 7 8 8 7 7 7 8 8 9 9 9 9 9 10 10 10 9 10 9
4 1 2 4 4 2 1 3 7 7 7 5 4 5 7 8 6 6 7 7 7 7 9 9 9 9 9 9 8 8 9 9 9 9 9 9 9 9 9 10 9 9 9 9 9 8 8 9 9 9 9 10 10 8 8 8 8 8 8 8 8 8 9 8 8 8 8 8 8 8 8 8 8 8 8 8 9 9 9 9 9 10 10 10 9 10 10
4 3 3 3 3 6 4 3 5 6 6 7 7 6 6 6 8 8 8 8 8 8 9 10 10 10 9 8 8 8 8 9 9 10 10 9 10 10 10 10 9 8 8 8 8 8 8 8 8 8 9 9 10 10 9 8 8 8 8 8 8 8 8 8 8 8 8 9 8 8 8 8 8 8 8 8 8 8 9 10 10 9 9 9 10 10 10
5 5 6 4 3 6 4 3 3 5 4 5 3 4 5 6 4 5 5 7 7 7 8 9 9 9 9 8 8 8 9 9 9 9 10 10 10 10 10 9 9 9 8 8 8 8 8 9 9 9 10 9 10 10 9 8 8 7 7 7 8 9 10 8 8 9 8 9 9 9 9 8 9 8 8 8 8 8 8 9 9 9 9 9 8 9 10
6 4 2 2 1 3 6 4 3 5 5 5 3 1 4 5 5 5 5 7 7 8 8 8 8 9 9 9 9 9 10 10 9 9 10 9 9 9 10 9 9 9 8 8 9 8 7 8 7 9 10 10 10 9 8 8 7 6 6 7 8 9 10 9 7 8 8 9 8 8 8 9 9 9 9 8 8 8 9 9 9 9 9 9 8 7 7
5 6 5 4 3 2 3 5 6 5 4 4 4 0 5 4 4 4 5 6 8 8 7 8 8 9 9 10 10 11 11 11 9 9 9 8 9 9 9 9 9 9 9 9 9 8 8 8 8 9 10 10 9 8 8 8 7 6 6 7 7 8 9 9 9 8 8 8 8 8 8 8 8 7 8 9 9 8 9 8 9 9 8 8 7 7 7
5 4 3 2 2 2 2 3 4 7 6 5 4 4 3 5 4 5 6 7 5 5 8 8 9 9 9 10 10 11 11 11 9 9 9 9 9 9 9 10 10 10 10 9 9 8 8 8 10 11 9 9 9 9 9 8 7 6 6 7 7 7 8 9 9 8 7 8 8 8 8 8 8 8 7 8 8 9 9 9 9 8 8 8 8 9 9
2 3 3 3 3 3 1 1 2 4 6 6 7 9 10 9 6 5 5 5 6 7 7 8 9 10 10 11 10 10 10 9 9 9 9 9 8 9 10 11 11 11 10 10 10 9 9 8 11 11 9 8 9 9 7 5 5 6 6 7 7 7 8 8 9 8 8 7 7 8 8 8 8 8 8 8 8 8 8 8 8 9 9 9 8 9 9
5 4 3 3 3 2 2 1 2 1 1 2 3 1 0 0 0 1 3 5 6 6 7 8 9 10 9 9 9 9 9 9 7 5 4 3 7 9 10 10 10 10 11 10 9 10 9 10 14 11 10 8 8 9 8 8 7 6 7 8 7 8 8 8 8 8 8 8 8 8 8 8 8 8 8 9 8 8 8 8 8 8 8 8 9 9 9
9 7 6 5 4 3 0 0 1 2 1 1 2 1 1 1 1 3 4 5 6 6 6 7 7 7 8 9 9 9 10 10 10 8 8 7 6 8 9 10 10 11 9 7 9 10 10 11 11 10 9 8 9 9 10 10 9 7 7 8 8 8 8 8 8 8 8 8 8 8 8 8 9 9 9 9 8 8 7 7 8 8 8 9 9 9 9
8 8 9 8 8 7 6 5 5 3 2 1 1 1 2 3 3 4 5 5 5 5 6 6 7 7 8 9 9 9 10 9 10 2 5 7 9 9 9 9 10 9 9 9 9 9 12 15 12 10 9 8 8 8 8 10 10 8 7 8 8 8 8 8 8 8 8 8 9 9 9 9 9 9 9 8 8 7 7 7 8 8 8 8 8 8 8
7 7 7 7 8 7 7 6 6 5 5 4 4 3 2 0 1 1 2 3 3 5 6 6 7 8 8 8 8 9 10 12 11 9 8 10 11 9 9 10 10 9 10 10 10 8 12 13 12 11 10 9 9 9 8 11 10 9 8 8 8 8 8 8 8 8 8 9 9 9 9 9 9 9 9 8 9 8 8 8 9 8 8 8 8 8 8
6 6 7 7 6 6 6 6 5 5 6 6 6 5 5 4 2 1 0 1 2 4 6 7 7 7 6 6 6 8 11 14 14 13 12 12 12 10 11 11 8 9 11 10 7 8 10 12 12 12 12 11 10 11 10 10 10 9 9 9 9 9 8 9 9 8 8 8 9 9 9 9 9 9 8 8 8 8 9 9 8 9 8 9 9 9 9
6 6 6 5 4 5 5 4 4 4 4 5 5 5 4 3 2 1 1 1 3 3 4 5 6 6 6 5 6 8 10 12 14 14 11 12 12 11 9 3 6 8 13 10 10 9 10 10 11 11 13 12 11 14 12 10 10 9 9 9 9 9 9 9 9 8 9 9 9 9 9 9 9 9 9 9 8 8 9 9 9 9 9 9 9 9 9
6 5 5 4 4 4 3 2 3 2 2 3 3 2 1 1 0 1 1 1 2 3 4 4 4 6 7 7 7 7 8 10 11 11 12 12 10 12 12 8 6 9 16 11 11 10 10 11 12 13 16 15 15 17 12 10 10 10 9 9 9 9 9 9 9 9 9 9 9 9 9 9 9 9 9 9 9 9 9 10 9 9 8 9 9 9 9
4 4 4 4 5 4 3 3 3 3 3 3 3 3 3 3 2 3 3 3 3 3 5 5 5 5 6 7 7 7 7 9 10 11 11 10 10 11 12 13 9 9 11 12 10 11 11 12 13 15 16 18 17 18 11 10 10 10 9 9 9 9 9 9 10 10 10 10 10 9 9 9 9 9 9 9 9 9 9 10 10 10 10 10 10 9 8
4 3 3 4 4 3 3 4 4 4 4 5 5 5 5 5 5 4 4 5 5 5 5 5 5 5 5 5 5 6 7 8 9 11 11 10 10 8 8 13 11 10 16 16 9 11 11 14 15 16 18 18 18 13 7 8 9 9 9 9 9 9 9 9 9 10 10 10 10 10 10 10 9 9 9 9 9 9 10 10 10 10 10 9 9 9 9
3 4 3 3 4 4 4 4 4 5 6 6 6 6 4 4 5 5 5 5 5 5 5 5 6 6 6 6 6 6 7 8 8 9 10 10 9 8 7 13 12 14 15 12 11 11 10 10 11 15 16 16 15 10 9 8 8 9 9 9 9 9 9 9 10 10 10 10 10 10 10 10 9 9 9 9 9 9 9 10 9 9 9 9 9 9 9
4 4 4 4 5 5 5 5 6 6 5 6 6 6 5 6 6 6 6 6 6 6 6 6 6 7 7 7 7 7 7 7 8 9 9 9 8 8 7 9 11 15 17 13 14 12 12 14 18 20 22 21 14 10 8 8 9 9 10 10 9 9 9 9 10 10 10 10 11 10 10 10 9 9 9 9 9 10 9 10 9 9 9 9 9 10 10
5 5 5 5 6 6 6 6 6 6 6 5 5 6 6 6 7 7 7 7 7 7 8 8 8 8 7 7 8 7 7 8 8 7 5 7 8 8 9 9 12 16 14 12 13 10 14 19 21 22 24 20 13 14 14 13 9 8 10 10 10 9 9 9 9 9 10 11 11 11 10 11 10 9 10 10 9 10 10 10 10 10 9 9 9 9 9
6 6 6 6 6 6 6 6 6 5 5 6 6 5 5 6 7 7 6 7 7 7 7 7 7 7 7 7 7 8 7 8 8 8 7 7 7 8 8 9 9 15 15 12 14 11 15 21 21 21 19 14 13 13 13 11 11 11 11 10 9 8 9 9 9 9 9 9 10 11 10 10 10 10 9 9 9 9 10 10 10 10 11 10 9 9 9
6 7 6 6 6 6 6 6 7 7 7 8 8 7 7 7 7 7 7 7 7 7 8 7 7 7 7 7 7 7 7 8 8 8 7 7 7 8 8 8 9 11 13 12 12 13 12 13 12 15 16 15 15 15 14 13 11 12 12 10 9 8 7 7 8 9 9 8 9 10 10 9 9 8 8 8 9 9 10 10 10 9 10 10 10 10 10
6 6 6 6 7 7 7 7 7 7 7 7 8 8 8 7 7 7 7 6 7 8 8 8 8 7 7 7 7 7 6 7 7 7 8 8 8 7 8 9 8 10 12 12 12 12 11 13 14 16 17 14 13 14 14 16 13 12 13 11 10 9 7 8 8 8 8 8 9 9 10 8 8 8 8 8 8 8 9 9 9 9 10 10 10 10 10
Wind_Direction
170 169 157 183 215 257 287 254 268 230 220 232 252 262 276 288 274 284 10 322 284 287 291 318 321 317 284 261 235 202 211 185 174 214 240 260 256 233 230 192 204 224 219 197 191 197 181 171 176 185 192 189 201 210 217 212 209 200 191 191 197 194 191 191 190 187 187 187 190 200 209 212 221 229 232 243 247 244 237 240 234 234 236 243 242 231 224
176 164 184 183 226 218 231 237 229 242 235 237 249 265 267 264 267 271 286 290 284 280 286 320 359 334 308 100 136 157 193 217 213 220 234 234 247 252 220 152 108 131 226 176 172 183 179 183 195 196 202 207 203 205 206 206 207 200 195 196 196 196 194 191 186 176 168 166 174 179 186 194 206 216 220 223 226 229 237 236 244 246 249 245 245 236 219
194 167 177 186 211 226 244 229 245 240 246 253 242 261 267 277 272 275 278 279 281 272 112 153 130 179 226 197 191 193 215 225 211 233 227 210 223 266 123 97 87 77 66 28 15 309 270 243 203 192 190 204 211 212 214 212 206 196 196 200 198 195 201 198 191 178 173 193 185 182 183 184 190 199 206 212 214 215 223 228 234 238 237 237 243 270 251
203 203 203 200 212 224 238 266 253 242 234 246 233 250 257 248 269 268 269 274 272 107 136 147 178 198 217 213 199 191 203 183 209 229 217 207 163 127 66 50 51 48 59 75 33 16 0 346 312 264 231 220 226 225 211 209 208 208 205 201 189 182 191 194 180 169 174 198 208 202 195 191 187 184 200 205 204 207 212 215 222 227 231 225 211 201 187
222 161 215 215 229 246 251 240 239 242 241 253 268 273 279 270 276 263 259 280 345 126 145 203 178 216 217 238 217 191 187 176 224 218 208 179 145 118 116 97 104 94 62 63 63 67 314 315 309 284 266 245 227 206 198 205 198 199 210 207 195 191 194 185 191 189 178 199 206 208 208 201 192 185 195 198 199 200 207 202 180 208 192 167 174 185 147
222 169 199 214 229 243 265 40 348 267 266 251 250 246 248 247 234 267 304 339 77 132 190 270 221 202 212 209 154 342 327 197 202 223 194 84 122 138 125 129 119 104 126 151 138 133 152 199 231 256 295 234 220 189 129 71 227 199 198 203 206 198 201 203 200 197 198 197 202 202 201 196 186 182 184 180 188 182 150 139 143 146 138 167 165 152 125
239 173 198 226 238 251 80 156 99 170 268 262 264 276 267 264 250 252 255 253 254 229 304 143 165 146 159 166 150 189 165 219 235 225 80 152 177 102 118 116 106 108 133 148 164 159 153 180 179 195 184 197 176 156 181 176 244 260 247 160 141 168 186 215 208 215 206 198 199 200 192 192 195 188 188 178 181 131 100 123 118 113 123 120 102 107 118
212 207 218 238 249 261 159 156 122 84 258 269 270 265 252 243 254 249 254 265 234 163 148 143 142 176 170 176 188 191 166 181 203 186 140 134 129 107 84 90 111 155 140 133 146 148 158 193 159 181 177 187 174 169 189 185 172 192 203 205 188 172 178 192 190 209 235 236 210 188 184 196 203 196 198 173 145 117 113 113 120 117 108 113 116 112 98
239 223 226 244 321 289 236 213 218 213 239 224 252 284 290 140 247 245 252 245 154 163 147 156 156 158 201 229 197 177 180 168 178 157 98 96 97 119 135 123 123 119 150 179 160 175 196 179 194 160 144 167 165 162 178 174 165 189 204 213 188 175 180 189 201 208 218 212 182 177 192 197 205 186 131 100 106 122 112 111 104 102 117 116 118 110 104
232 246 244 245 246 257 254 252 150 221 246 266 267 261 271 221 236 240 248 227 163 165 158 163 159 174 224 240 182 161 171 160 158 150 147 139 150 129 101 110 112 146 168 165 164 188 182 169 157 126 171 187 170 149 145 134 145 164 174 191 193 197 183 191 175 158 145 144 171 184 183 185 145 106 94 103 111 112 117 118 112 117 118 106 91 91 98
196 230 251 249 256 264 257 50 143 162 153 226 191 256 272 102 175 205 219 189 171 180 172 167 171 203 247 272 97 146 157 155 155 151 155 146 111 110 132 133 135 134 109 109 154 159 181 151 124 148 161 153 144 121 113 108 110 116 130 136 105 130 136 132 133 162 163 146 130 129 120 93 95 98 94 94 102 107 111 110 110 120 114 108 98 84 84
207 241 236 249 229 269 118 144 158 147 161 172 221 264 278 104 143 156 186 180 179 176 174 170 193 225 283 15 84 132 158 162 154 162 149 131 135 110 99 96 102 105 114 119 113 73 93 126 153 187 177 150 136 130 128 131 124 123 117 124 131 137 112 106 111 119 127 127 131 123 124 107 97 107 119 117 120 117 113 108 109 102 97 89 85 78 74
211 215 250 249 256 180 158 162 132 144 156 196 246 264 57 138 139 164 172 181 175 172 172 185 209 226 49 73 82 117 140 142 137 128 112 111 97 90 85 76 76 91 82 67 56 66 121 159 164 163 180 155 129 114 129 124 107 105 105 104 102 103 105 108 110 95 86 110 117 121 123 116 119 122 119 123 126 127 119 113 112 105 96 88 82 70 64
230 212 241 251 262 86 130 137 154 144 170 219 255 31 87 151 152 167 194 177 175 177 185 187 238 89 96 92 128 150 160 152 143 133 125 125 114 100 87 80 87 86 85 79 69 46 15 53 150 179 174 134 125 130 119 105 101 102 104 102 103 99 87 79 88 102 110 110 109 108 112 110 111 107 109 103 90 105 111 117 116 109 106 100 93 84 82
235 222 230 241 249 140 163 131 140 174 236 320 74 126 98 104 174 168 181 185 173 187 184 190 140 125 134 138 151 159 159 157 152 134 123 118 107 98 93 98 87 91 104 108 96 80 336 209 162 168 137 120 117 110 99 101 107 109 106 105 107 107 108 105 104 102 106 108 105 107 106 102 105 109 113 114 119 110 112 107 104 108 112 114 109 101 104
223 215 225 232 256 112 160 168 219 191 229 66 123 217 160 152 177 176 172 179 178 189 189 178 172 157 146 151 158 165 155 158 135 124 120 113 104 103 103 105 100 101 116 117 125 138 130 26 202 135 112 112 111 104 101 102 104 106 106 108 111 108 106 106 105 106 109 111 110 113 115 115 113 116 126 126 120 123 123 122 122 118 118 115 114 115 115
233 251 249 53 87 155 182 197 41 134 132 106 96 14 66 166 166 171 201 165 172 187 183 173 171 165 170 163 176 166 162 157 140 139 127 119 117 117 115 113 107 92 107 122 131 130 126 136 116 112 115 112 105 102 103 104 100 102 105 107 107 103 104 109 112 115 110 108 110 112 116 118 120 123 122 121 120 127 126 118 115 114 119 117 111 114 111
203 24 77 78 92 165 184 142 85 122 148 127 162 166 172 68 93 180 190 161 170 174 179 174 171 177 166 163 175 161 161 155 143 129 120 115 116 118 114 116 126 116 116 122 128 128 130 131 126 120 120 114 106 108 112 110 109 106 103 100 101 105 111 113 114 114 110 108 108 111 114 113 113 118 120 117 114 118 117 117 120 123 122 117 119 120 116
202 210 150 217 204 178 201 165 125 89 132 164 176 145 100 128 139 154 141 159 165 166 169 175 166 161 164 169 162 155 148 145 148 143 122 111 107 109 120 131 136 129 131 135 135 133 125 122 115 114 110 103 105 110 116 128 124 118 111 113 112 115 113 113 112 111 109 112 113 110 109 106 103 102 105 116 119 121 123 124 124 125 124 124 125 123 122
217 164 113 136 99 98 228 190 174 167 148 149 147 101 112 112 125 138 144 154 160 161 172 171 170 167 170 167 162 158 152 153 143 131 123 112 103 112 133 149 143 130 135 135 128 116 109 113 115 114 114 115 114 111 114 116 119 121 123 125 125 124 118 113 108 102 98 95 97 87 66 60 67 80 102 110 101 79 76 99 125 126 127 125 120 125 126
166 103 192 190 191 206 194 195 207 168 148 147 144 143 127 131 139 138 144 166 154 174 168 171 172 169 166 168 166 161 156 155 148 139 129 116 112 124 136 136 126 129 135 128 122 120 119 118 113 109 107 104 104 106 109 115 122 124 122 124 121 117 114 110 107 110 109 104 99 96 87 73 60 41 18 15 56 77 47 22 0 97 130 120 117 117 128
217 237 181 171 214 212 184 191 177 149 143 150 144 142 146 148 145 148 152 154 162 178 165 172 174 169 164 166 169 164 158 156 144 141 135 127 127 130 131 133 130 126 123 121 120 115 111 108 107 107 101 98 102 104 109 115 118 119 121 120 119 115 114 113 112 110 105 101 100 104 105 99 94 75 59 53 28 35 49 18 34 34 42 67 73 125 102
301 32 113 184 245 332 270 178 163 148 152 152 151 159 158 157 151 158 154 155 157 172 170 174 174 163 165 162 170 165 160 151 147 145 141 135 133 143 143 137 133 134 131 126 122 116 112 108 103 100 101 102 97 97 103 110 111 108 110 110 110 111 113 109 105 113 113 107 101 100 100 100 95 95 92 60 52 44 39 41 41 39 42 40 41 42 82
311 22 1 353 285 352 357 155 148 150 153 159 155 155 157 159 160 160 163 160 163 165 172 180 179 164 165 164 172 168 153 151 149 149 147 143 137 145 154 146 141 143 144 140 135 130 129 128 124 120 116 109 110 108 108 116 119 114 115 123 121 118 111 109 103 111 113 111 112 106 104 105 105 110 106 100 70 44 43 44 48 49 46 44 48 58 65
320 330 312 318 262 22 345 149 150 148 156 164 154 155 164 161 162 162 159 158 169 170 170 180 174 171 168 166 170 163 157 151 151 145 143 141 140 153 159 155 150 151 150 145 142 140 141 140 138 138 132 130 125 117 124 139 137 129 129 123 119 120 121 119 114 113 122 125 125 123 119 116 119 122 120 118 108 100 68 63 66 63 53 48 50 54 67
320 310 303 295 263 165 165 145 142 150 155 156 147 153 155 159 148 159 157 160 164 174 175 175 171 173 175 168 167 161 156 151 144 145 150 151 154 161 168 156 158 155 152 151 150 149 148 149 145 142 145 147 142 143 144 137 129 122 125 122 125 133 141 137 131 129 129 132 132 132 131 131 129 126 124 118 120 119 116 111 91 74 65 53 50 68 64
325 297 283 245 207 154 179 182 164 162 159 158 147 151 156 141 149 155 146 159 161 172 175 176 171 169 175 172 172 165 157 141 150 162 158 162 163 165 168 167 164 164 159 155 154 152 150 151 149 145 147 143 141 144 140 134 131 131 126 126 121 115 125 137 137 138 136 136 137 135 136 139 138 133 124 129 131 131 131 129 124 118 113 79 42 30 85
351 355 330 332 75 119 111 71 73 149 165 162 154 159 146 147 151 152 154 158 160 165 174 182 170 170 176 174 175 168 154 158 165 167 169 173 165 166 165 166 160 165 160 157 155 153 159 160 155 148 140 141 142 147 141 137 134 132 133 134 136 140 140 143 142 140 135 135 135 139 143 141 142 134 137 141 139 136 134 131 131 130 123 100 95 62 66
54 33 103 43 39 31 87 91 98 116 147 154 164 169 162 163 159 163 161 163 161 163 172 175 175 180 180 173 181 175 174 174 170 172 173 171 165 162 160 160 164 164 156 161 158 164 166 164 160 151 142 142 149 147 143 140 142 140 144 146 143 145 150 146 146 139 134 133 137 137 137 142 141 143 149 146 142 142 140 139 137 136 128 127 122 114 110
4 60 207 187 237 354 42 104 91 101 129 148 169 192 189 178 169 170 165 163 170 174 174 170 180 186 187 180 181 180 182 178 169 174 169 167 164 163 163 165 168 158 161 162 162 168 169 168 164 155 152 150 148 147 148 147 146 147 152 150 148 154 150 146 143 136 141 144 133 136 146 143 146 152 151 150 151 149 146 146 146 141 145 149 149 145 149
326 291 252 219 229 260 293 107 113 117 131 150 173 210 205 208 186 170 163 163 171 180 172 178 185 188 191 189 182 186 188 177 170 172 170 166 163 166 167 173 176 170 173 169 167 171 170 170 166 161 157 161 154 157 160 158 154 155 157 155 148 107 114 138 148 151 150 145 148 158 151 157 156 158 152 156 157 155 152 151 154 154 154 158 162 159 151
314 295 220 238 230 236 178 145 130 117 139 156 166 204 221 228 215 180 170 174 181 178 174 181 184 189 190 190 186 184 192 181 177 177 171 170 166 167 169 178 181 178 175 171 173 177 178 176 172 156 157 165 160 166 166 165 157 167 168 158 150 151 149 157 158 159 155 155 160 165 163 165 161 162 160 163 163 161 163 160 163 162 166 168 170 162 153
280 282 257 211 215 222 199 165 130 111 113 117 140 193 220 218 271 268 191 170 166 170 176 186 186 184 182 183 185 185 188 185 182 177 175 172 170 168 174 182 186 185 183 175 178 179 183 182 175 157 164 167 172 173 174 166 168 174 171 165 160 158 156 181 168 165 169 168 177 176 174 178 167 173 172 170 168 169 171 171 172 172 172 175 169 158 160
253 259 313 111 241 262 243 211 135 120 117 97 95 234 237 224 199 225 219 168 169 171 183 183 181 178 179 182 183 186 188 187 188 186 180 171 170 170 175 183 189 189 190 183 182 186 184 188 172 164 169 172 177 178 180 170 175 183 174 176 167 158 171 177 178 185 176 184 183 185 181 182 177 186 170 183 177 185 175 181 180 185 178 183 166 140 91
263 268 264 252 219 227 237 192 144 122 119 126 113 37 286 258 224 207 223 206 188 187 179 173 172 180 182 187 186 191 193 197 194 185 179 173 173 171 174 181 188 194 192 192 189 192 186 182 170 171 176 179 179 182 178 183 179 185 180 189 183 172 177 182 184 196 187 186 184 181 188 190 186 197 184 184 186 188 185 188 180 188 184 178 150 144 143
292 292 294 279 254 230 185 172 139 136 149 152 152 161 222 250 231 227 227 237 245 196 167 170 171 180 183 187 192 197 197 197 193 186 182 180 176 172 174 180 185 193 195 192 191 189 183 180 173 174 181 179 185 190 181 185 179 188 180 193 191 190 185 190 190 197 198 190 188 187 188 193 189 187 192 191 189 186 188 187 184 187 185 182 167 151 153
340 312 317 315 338 335 352 108 132 141 149 158 175 178 188 204 210 224 243 241 220 220 183 173 171 181 187 192 196 196 195 193 191 191 191 184 176 176 179 186 188 194 193 202 193 189 188 177 162 170 185 183 189 192 170 174 189 179 184 195 194 196 191 192 193 195 195 194 191 188 188 183 192 187 194 197 191 189 188 185 189 189 189 186 168 157 158
46 32 26 8 3 356 338 15 40 66 89 130 141 124 48 2 12 268 252 239 234 221 203 191 189 189 190 189 194 193 190 183 160 121 90 178 186 187 189 194 195 199 205 211 184 178 189 162 158 176 192 193 191 192 162 164 197 190 188 197 194 194 193 195 190 195 192 189 193 190 189 189 190 188 189 200 196 191 196 188 187 190 186 180 180 168 165
60 59 60 63 61 57 33 27 63 37 324 167 156 184 271 291 243 220 219 226 235 231 219 211 201 197 195 192 191 185 172 147 132 137 158 186 209 208 207 204 204 204 206 191 172 176 169 159 173 185 194 199 194 204 158 157 188 204 196 197 195 197 193 197 193 195 197 190 192 194 192 193 199 196 187 198 195 193 198 192 188 186 184 187 184 182 182
53 52 50 51 55 57 62 62 69 92 112 115 94 89 147 175 196 221 220 202 191 207 227 221 209 208 204 203 195 191 175 139 100 126 227 209 205 212 222 222 218 210 201 188 187 179 164 160 171 187 190 194 192 200 165 165 182 205 200 201 196 198 195 198 196 195 194 194 192 194 197 192 196 200 193 190 184 190 185 181 185 187 186 181 184 176 169
38 43 48 49 50 47 51 57 65 60 61 72 94 104 87 79 138 202 223 215 186 192 215 222 221 222 218 211 200 191 167 142 152 196 205 214 213 210 213 220 207 203 199 196 202 175 157 170 182 184 188 188 189 197 180 162 185 204 204 203 201 198 195 195 196 194 190 191 188 189 193 187 186 193 184 192 189 188 183 186 187 185 183 175 171 169 173
37 39 42 44 41 37 41 41 46 55 57 49 44 37 39 33 18 16 47 182 197 204 207 210 228 239 237 217 193 179 163 158 171 199 202 196 199 201 210 223 194 195 192 185 169 148 166 179 188 192 189 186 185 181 176 171 192 200 203 201 202 199 199 193 194 194 189 191 185 191 186 186 180 185 179 189 187 189 182 182 182 184 181 176 171 171 179
16 23 29 33 35 27 19 21 22 25 47 62 53 51 40 32 32 8 332 267 245 221 214 214 202 218 234 219 188 181 179 167 173 186 217 232 214 213 214 205 180 186 161 172 187 188 181 190 189 197 187 186 180 161 164 179 194 201 203 200 200 200 198 196 194 193 188 189 186 191 183 186 183 186 180 187 180 183 178 183 185 185 182 179 177 180 179
1 6 2 7 4 9 349 0 355 1 346 22 22 17 358 348 281 272 269 261 256 267 259 234 215 208 211 212 201 191 191 186 182 190 200 216 215 214 213 212 186 159 161 173 185 196 193 192 197 188 175 179 162 157 174 188 196 201 203 202 198 200 199 193 195 194 190 189 189 189 184 187 188 184 183 184 181 179 182 185 186 182 181 182 184 182 189
1 355 344 347 338 323 323 332 334 333 332 328 299 260 262 269 252 240 250 249 242 238 243 244 240 226 216 207 207 204 194 190 189 187 202 206 213 221 199 201 185 165 168 169 183 195 200 195 190 177 172 176 164 165 178 190 196 200 201 202 201 202 201 198 197 196 193 192 192 191 185 186 191 183 184 184 180 180 183 187 187 183 184 189 188 191 182
344 335 334 318 314 319 316 309 304 298 288 279 271 259 239 235 243 241 230 232 236 235 239 238 243 236 240 231 221 209 209 203 204 204 211 215 215 220 184 185 196 186 170 173 189 199 205 196 182 173 172 173 166 169 176 196 199 200 199 202 201 202 202 203 200 202 197 197 192 193 187 189 191 186 185 182 179 183 178 192 186 185 192 193 191 187 181
319 311 321 314 308 305 304 290 280 279 277 274 271 272 267 263 265 268 263 258 255 255 251 245 241 239 234 233 235 219 216 211 215 214 218 224 226 233 176 173 177 171 177 190 204 204 205 187 173 166 163 158 147 149 167 208 210 206 199 201 199 200 201 202 200 202 200 200 195 195 190 193 193 185 182 179 176 186 174 184 197 192 192 189 185 178 179
300 303 303 298 298 296 295 290 278 270 268 268 271 276 274 273 270 272 272 268 259 253 247 244 242 238 234 228 228 232 237 234 232 222 218 225 223 219 202 196 191 176 181 194 202 203 176 155 142 141 143 146 153 160 179 215 214 208 203 200 200 200 200 199 198 199 198 197 194 194 192 193 193 190 182 184 181 186 177 180 189 187 185 184 182 180 182
289 292 294 289 284 280 277 280 283 277 272 276 272 268 271 272 271 267 264 261 258 254 253 249 243 239 231 226 230 234 228 224 234 250 214 213 217 216 212 196 171 164 178 195 197 194 157 153 152 158 162 161 166 175 184 190 199 215 216 204 202 199 199 196 196 194 194 193 192 194 193 191 192 191 183 187 184 185 178 184 188 186 184 183 184 185 183
286 288 287 287 286 283 285 279 273 283 295 287 283 284 277 271 264 257 252 256 259 263 267 263 254 238 231 227 216 225 226 226 224 230 233 223 219 221 207 199 183 172 183 193 198 191 158 161 162 164 164 170 175 180 185 181 170 193 217 212 207 200 196 193 186 185 192 189 190 195 195 192 192 187 184 187 186 184 182 187 191 180 164 181 188 189 193
290 287 290 296 292 292 287 282 283 286 284 284 285 288 289 277 272 271 268 265 266 262 263 262 258 255 250 241 237 227 221 221 223 222 224 218 215 214 208 198 172 173 187 195 201 200 176 179 176 172 176 183 184 186 186 183 179 191 202 206 203 203 181 172 179 181 188 187 187 187 186 188 183 178 182 189 186 187 186 191 193 185 177 192 195 203 204
276 282 285 286 290 290 286 281 278 276 276 276 275 274 275 278 282 278 271 253 255 260 264 265 264 258 255 253 246 243 233 226 228 212 214 224 211 207 192 193 188 180 189 196 199 200 186 182 177 179 187 190 191 190 186 178 179 192 199 201 197 197 181 174 179 177 178 181 184 178 175 174 166 166 179 186 179 182 183 187 187 181 186 199 203 206 207